Wind_Speed
40 39 38 39 39 41 43 43 43 44 45 46 47 48 50 51 51 53 55 55 54 54 54 51 50 50 48 46 45 43 41 39 37 37 37 37 37 38 38 37 38 39 40
36 36 36 36 37 40 42 42 42 43 44 43 43 45 47 48 49 50 51 52 52 51 51 51 50 49 48 46 44 43 41 39 38 37 37 37 37 38 37 37 37 38 39
34 33 33 34 35 38 39 40 41 41 42 42 41 42 44 45 46 49 49 49 48 47 48 48 49 48 47 47 46 43 40 39 38 37 36 36 37 37 36 36 37 38 39
34 33 32 33 34 36 37 39 40 41 41 41 41 41 43 43 45 46 48 48 46 46 46 46 46 45 45 46 44 43 41 38 37 36 35 35 35 35 35 35 36 37 38
34 34 32 33 34 35 36 37 38 39 40 40 40 41 42 44 45 45 46 45 45 44 44 43 43 42 43 43 42 40 39 37 36 36 35 35 34 33 34 34 35 36 37
33 33 32 32 33 34 35 36 37 38 38 39 40 41 42 44 44 44 45 44 43 43 43 43 42 40 40 41 40 38 38 37 36 36 35 34 32 32 32 33 34 36 37
32 31 31 31 31 32 34 34 34 35 36 37 39 39 40 42 43 43 42 41 41 41 42 43 41 40 38 37 37 36 37 37 37 36 34 33 32 32 32 33 34 35 36
30 30 30 30 31 32 33 33 34 34 35 36 37 38 40 41 42 44 44 42 42 41 40 39 39 39 37 35 35 35 35 36 35 34 33 32 32 33 33 33 33 35 36
30 29 29 30 31 31 32 32 33 34 34 34 34 37 39 40 42 42 44 43 41 40 39 38 37 37 35 34 35 34 34 33 33 32 31 31 32 33 33 32 33 34 36
29 29 29 30 30 30 31 31 32 34 34 33 33 35 38 40 41 41 41 41 41 40 39 37 35 34 33 34 34 33 33 31 30 29 30 31 32 33 32 32 33 35 36
25 26 27 29 29 29 31 31 31 33 33 33 33 34 37 39 40 40 40 39 39 38 37 36 34 33 33 33 34 33 32 31 30 29 29 29 30 31 31 32 33 35 36
23 23 25 27 28 28 29 29 30 32 33 33 34 34 35 37 39 39 38 38 37 36 35 34 34 34 33 33 32 31 31 30 29 29 29 29 30 30 30 32 34 35 35
24 24 25 25 27 28 29 30 29 30 31 33 34 35 34 36 37 37 38 37 35 35 34 34 35 35 34 33 32 30 29 29 28 27 28 28 28 29 30 31 32 33 33
25 25 26 26 27 29 29 30 30 30 31 32 33 35 36 36 35 35 36 35 35 34 34 35 35 35 33 32 31 29 29 27 26 26 27 27 27 28 29 30 30 30 29
25 25 26 26 27 28 30 29 30 30 32 32 32 34 36 36 35 34 34 34 33 33 33 33 34 33 32 31 29 28 27 27 27 26 26 26 27 27 27 28 27 27 27
27 27 27 27 28 28 30 30 30 30 32 32 33 34 36 35 35 35 34 34 33 32 32 32 32 31 31 30 28 26 26 25 25 25 25 26 26 25 25 25 25 25 26
27 28 28 28 29 29 30 30 30 30 31 33 33 35 35 35 35 34 33 33 33 33 32 31 30 30 29 29 27 25 24 24 24 23 23 23 24 24 24 24 24 24 25
27 27 28 28 29 30 30 31 32 32 32 34 35 35 35 35 35 33 33 34 35 33 31 30 29 28 27 26 25 24 23 22 22 21 21 22 22 22 22 22 23 24 25
27 28 28 29 30 31 32 33 34 33 33 34 35 36 35 34 34 33 33 33 33 32 30 29 28 27 26 25 23 23 22 21 21 20 21 21 20 19 20 20 21 22 23
27 27 28 29 31 33 34 34 35 34 33 34 35 35 35 34 35 34 33 32 32 31 30 28 27 27 25 24 22 22 21 20 20 20 19 19 18 18 18 19 20 21 22
27 27 27 29 32 33 34 35 36 35 35 35 35 35 35 35 35 34 32 31 31 30 28 27 26 25 25 23 21 20 20 19 18 18 17 17 17 17 18 18 19 20 21
26 27 27 29 32 34 35 36 36 36 36 36 36 35 35 35 34 33 32 32 31 29 27 27 25 24 23 22 21 20 19 18 17 16 16 16 16 17 17 18 18 19 20
25 26 26 27 31 34 36 37 37 38 38 37 36 36 35 35 34 33 32 32 31 29 27 26 25 24 23 21 20 19 18 17 16 16 15 15 15 16 17 17 17 18 19
24 26 26 27 30 33 35 37 38 38 38 37 37 36 35 34 34 34 34 33 31 28 27 26 25 24 22 20 20 19 18 17 17 16 15 15 15 16 16 16 16 17 18
23 25 26 27 30 33 35 37 38 39 38 37 37 37 36 35 34 34 34 33 31 29 26 25 24 23 21 19 19 18 18 17 16 15 14 14 14 14 14 15 16 16 17
22 24 24 26 29 33 35 36 37 37 38 38 38 38 37 36 35 34 34 33 31 29 26 25 24 23 21 20 18 17 17 16 14 14 14 13 13 12 13 14 15 15 15
Wind_Direction
270 264 262 259 254 248 243 241 239 237 236 236 236 233 231 231 230 229 229 230 229 230 232 234 236 236 237 240 241 244 247 252 256 257 261 265 271 276 279 283 286 289 293
268 264 262 258 252 247 243 240 238 234 235 235 232 231 229 230 228 228 227 228 228 230 232 233 235 236 237 238 241 243 246 250 254 256 260 264 269 275 278 282 286 290 293
266 264 262 258 252 247 242 238 236 235 235 233 230 229 228 228 228 227 226 226 227 229 230 232 234 236 237 239 240 242 245 248 252 256 259 263 269 274 278 282 287 290 294
265 263 261 257 251 245 240 237 235 236 234 231 229 228 226 227 225 225 224 225 225 227 228 230 233 235 236 238 239 241 243 246 250 255 260 265 269 274 278 281 286 291 295
265 263 259 254 248 241 238 237 235 235 231 230 229 225 225 225 223 223 223 222 224 225 226 228 231 233 235 237 237 239 242 246 251 255 261 266 269 274 277 281 286 292 295
265 262 256 251 245 241 239 238 236 232 230 229 228 226 225 223 221 223 222 222 222 224 226 228 228 230 234 235 236 238 242 246 252 256 260 264 270 274 277 282 287 291 296
264 260 254 248 241 240 239 239 235 232 230 229 226 223 221 221 221 220 220 221 222 224 226 226 228 230 231 234 236 239 242 246 251 256 261 264 269 274 278 284 288 293 297
261 257 251 245 240 238 239 237 234 230 228 225 222 220 220 219 219 221 222 222 223 225 225 225 226 227 229 233 236 238 242 245 251 256 261 265 269 272 279 284 289 294 297
260 255 250 245 241 239 239 236 234 230 225 222 220 219 219 217 217 221 222 221 222 223 223 224 224 224 227 231 234 237 240 244 249 254 261 265 270 274 280 285 291 296 299
260 255 250 244 239 235 234 232 231 228 224 222 221 220 218 217 218 219 220 220 221 222 221 221 222 224 228 231 233 236 238 243 248 252 259 265 270 273 279 286 292 297 299
260 254 248 241 237 233 230 227 226 225 226 223 220 218 216 216 216 217 218 219 220 220 220 220 222 226 229 232 234 236 239 242 247 251 258 265 269 274 279 286 293 298 300
258 252 246 240 236 230 227 224 223 224 225 224 221 217 215 214 215 216 218 219 218 217 217 219 223 227 230 233 234 235 238 241 245 251 259 265 270 275 280 286 293 297 300
255 251 244 238 234 230 228 225 224 223 222 222 221 217 215 214 214 215 215 214 214 215 216 218 222 226 230 233 234 236 238 240 245 253 260 266 271 276 281 287 294 298 301
252 249 243 237 234 229 225 222 222 222 220 218 218 215 211 210 211 211 212 212 214 214 214 216 221 225 228 231 232 234 238 242 247 255 261 267 272 279 283 289 294 297 300
249 246 242 237 231 226 222 221 222 219 216 215 214 212 209 208 209 209 211 213 213 213 213 217 222 226 227 230 232 234 237 243 249 255 262 268 274 281 287 290 292 295 300
246 243 239 235 231 227 222 221 219 215 212 211 210 209 208 208 210 211 213 214 214 213 214 217 219 221 225 228 231 233 236 243 250 257 262 267 276 282 285 287 292 296 301
244 241 238 234 231 228 221 217 213 211 208 207 207 207 208 209 210 212 212 213 213 212 214 216 216 220 224 228 230 233 237 244 251 258 265 271 277 280 282 286 291 296 302
243 238 235 231 227 223 217 213 210 209 207 205 205 205 206 206 207 209 211 211 209 210 214 215 215 218 221 226 229 232 237 243 251 260 267 272 276 278 280 285 291 297 303
240 236 233 229 225 221 216 212 210 208 206 204 202 202 203 204 206 207 208 208 209 210 211 211 214 217 219 224 228 232 237 242 253 263 267 271 275 276 280 285 292 299 304
240 235 231 226 222 219 215 212 209 207 205 204 202 201 202 203 205 205 206 206 206 208 209 209 212 215 218 221 226 231 236 243 255 262 265 268 271 275 281 287 295 300 305
238 233 228 222 218 216 214 211 209 207 205 204 202 201 202 202 203 203 203 202 203 206 208 209 211 214 217 222 227 232 237 246 253 258 260 264 270 277 284 290 296 301 306
235 230 225 220 216 213 212 210 207 204 202 202 201 201 200 200 201 201 201 202 203 205 209 210 211 213 218 223 227 233 239 244 247 251 258 264 271 279 286 292 296 302 308
231 225 220 216 212 209 208 207 205 202 201 200 199 199 199 200 200 201 202 202 203 205 207 207 209 212 215 220 228 234 239 240 245 251 258 265 274 282 288 292 297 304 309
228 222 216 212 208 205 204 204 203 201 199 199 200 199 198 198 199 199 200 201 202 203 205 208 210 211 215 222 228 232 234 238 244 250 258 267 275 282 287 290 298 304 308
223 217 212 208 205 202 201 201 201 199 198 198 198 197 196 196 197 198 198 199 200 201 203 206 209 210 213 218 223 228 233 237 242 250 257 266 275 282 286 292 299 303 307
215 209 205 202 200 197 196 197 198 197 195 195 195 195 195 195 195 196 196 196 197 200 203 204 206 208 211 215 220 224 229 232 238 247 258 267 275 279 285 294 300 303 307
Height
5506 5507 5508 5509 5511 5513 5516 5521 5526 5531 5536 5542 5548 5555 5561 5569 5578 5586 5595 5604 5612 5621 5629 5637 5643 5650 5656 5662 5668 5673 5677 5681 5684 5687 5688 5689 5689 5689 5688 5687 5685 5683 5680
5496 5496 5497 5499 5501 5503 5506 5511 5516 5521 5527 5532 5537 5545 5552 5560 5568 5576 5585 5593 5602 5611 5619 5627 5633 5640 5647 5653 5658 5664 5668 5672 5675 5678 5679 5680 5681 5681 5680 5679 5677 5674 5671
5486 5487 5487 5489 5491 5493 5497 5502 5506 5512 5517 5522 5528 5536 5543 5551 5558 5567 5576 5585 5593 5602 5610 5617 5624 5630 5637 5643 5649 5654 5659 5663 5666 5669 5671 5672 5672 5672 5671 5670 5668 5666 5663
5477 5478 5478 5480 5482 5485 5489 5493 5498 5503 5508 5514 5520 5527 5535 5542 5550 5558 5567 5576 5584 5592 5601 5608 5614 5621 5627 5633 5639 5645 5649 5654 5657 5660 5662 5663 5664 5663 5663 5662 5660 5657 5654
5468 5469 5469 5471 5474 5477 5481 5485 5489 5494 5499 5505 5512 5519 5526 5534 5542 5550 5559 5567 5576 5583 5591 5599 5606 5612 5617 5624 5630 5636 5641 5645 5649 5652 5653 5655 5655 5655 5655 5653 5651 5649 5645
5459 5460 5461 5462 5465 5469 5473 5477 5481 5486 5491 5497 5504 5511 5518 5526 5535 5543 5551 5560 5567 5575 5583 5590 5597 5603 5609 5615 5621 5627 5632 5637 5641 5643 5645 5646 5647 5647 5646 5645 5643 5641 5638
5450 5451 5453 5454 5457 5461 5465 5469 5474 5479 5484 5490 5496 5503 5511 5519 5527 5535 5544 5551 5559 5567 5574 5582 5589 5596 5602 5608 5613 5619 5624 5628 5632 5635 5637 5638 5639 5640 5639 5637 5635 5632 5629
5442 5443 5445 5447 5450 5454 5458 5462 5467 5472 5477 5483 5489 5496 5504 5512 5520 5528 5536 5543 5551 5559 5567 5574 5582 5588 5595 5600 5606 5611 5616 5621 5624 5627 5629 5631 5631 5631 5630 5629 5626 5624 5620
5434 5435 5437 5440 5444 5448 5451 5455 5460 5465 5471 5476 5482 5490 5497 5505 5513 5521 5529 5536 5544 5552 5560 5567 5574 5581 5587 5593 5598 5604 5608 5613 5616 5619 5621 5622 5623 5623 5622 5621 5619 5616 5613
5426 5428 5430 5433 5437 5441 5444 5448 5453 5458 5464 5470 5476 5483 5491 5498 5506 5513 5521 5529 5537 5545 5553 5560 5567 5574 5580 5585 5591 5596 5601 5605 5608 5610 5613 5614 5615 5615 5614 5613 5612 5609 5605
5419 5421 5423 5426 5430 5434 5438 5442 5447 5452 5458 5463 5470 5477 5484 5491 5499 5507 5515 5523 5531 5539 5546 5554 5560 5567 5573 5579 5584 5589 5594 5598 5600 5603 5605 5606 5607 5608 5607 5606 5604 5601 5597
5413 5415 5417 5420 5423 5428 5432 5437 5442 5446 5451 5457 5463 5470 5477 5485 5493 5500 5508 5516 5524 5532 5540 5547 5554 5560 5566 5571 5577 5582 5586 5590 5593 5595 5598 5599 5600 5600 5599 5598 5596 5593 5589
5407 5409 5411 5414 5417 5421 5425 5430 5435 5440 5446 5451 5458 5464 5472 5479 5487 5494 5502 5510 5518 5525 5533 5540 5547 5553 5559 5564 5570 5575 5579 5582 5586 5588 5590 5592 5592 5592 5591 5590 5588 5585 5582
5400 5402 5405 5407 5411 5415 5419 5424 5429 5434 5440 5446 5452 5459 5466 5474 5481 5489 5495 5503 5511 5519 5526 5533 5540 5546 5552 5558 5563 5567 5572 5575 5579 5581 5583 5584 5584 5584 5583 5582 5580 5578 5575
5393 5395 5398 5401 5404 5409 5413 5418 5423 5428 5434 5440 5447 5454 5461 5469 5477 5484 5490 5498 5506 5514 5521 5527 5533 5540 5546 5551 5556 5561 5565 5569 5572 5574 5575 5577 5577 5577 5576 5575 5573 5571 5569
5386 5388 5391 5394 5398 5402 5407 5412 5417 5423 5429 5435 5442 5449 5457 5464 5472 5479 5486 5494 5501 5508 5515 5522 5528 5534 5540 5545 5550 5555 5559 5562 5565 5567 5568 5570 5570 5570 5569 5568 5567 5565 5563
5377 5380 5383 5387 5391 5396 5401 5406 5412 5418 5423 5430 5437 5444 5452 5459 5467 5474 5481 5488 5495 5502 5509 5516 5523 5529 5534 5539 5544 5549 5553 5556 5558 5560 5561 5562 5563 5563 5563 5562 5560 5559 5556
5369 5372 5376 5380 5384 5389 5394 5400 5406 5412 5418 5425 5432 5439 5447 5455 5462 5469 5477 5483 5491 5497 5505 5511 5518 5523 5529 5534 5539 5543 5547 5550 5552 5554 5555 5556 5556 5556 5556 5555 5554 5552 5550
5361 5364 5368 5372 5377 5382 5388 5394 5400 5407 5413 5420 5426 5434 5441 5449 5457 5465 5472 5479 5486 5493 5500 5506 5513 5518 5524 5529 5533 5537 5541 5544 5546 5547 5549 5550 5550 5550 5550 5549 5548 5546 5544
5352 5356 5360 5365 5369 5375 5381 5388 5395 5401 5408 5415 5422 5429 5437 5445 5453 5460 5467 5475 5481 5488 5495 5502 5508 5513 5518 5523 5528 5531 5535 5538 5540 5541 5543 5544 5545 5545 5545 5544 5543 5541 5538
5344 5348 5352 5357 5362 5368 5375 5382 5389 5396 5403 5410 5418 5425 5433 5441 5448 5456 5463 5470 5477 5484 5491 5497 5503 5508 5513 5518 5522 5526 5529 5532 5534 5536 5537 5539 5540 5540 5539 5539 5537 5535 5533
5336 5340 5345 5349 5355 5361 5368 5375 5383 5390 5398 5406 5413 5420 5428 5436 5444 5452 5459 5466 5473 5480 5486 5492 5498 5503 5508 5513 5517 5521 5524 5527 5529 5531 5532 5534 5534 5534 5534 5533 5532 5530 5528
5329 5333 5338 5343 5348 5355 5362 5369 5377 5385 5393 5401 5408 5416 5424 5432 5440 5447 5455 5462 5469 5476 5482 5488 5494 5499 5504 5508 5512 5516 5519 5522 5524 5526 5528 5529 5529 5529 5529 5528 5527 5525 5523
5322 5327 5331 5336 5342 5349 5357 5364 5372 5380 5388 5396 5404 5412 5420 5428 5436 5443 5451 5458 5465 5472 5478 5484 5490 5495 5500 5504 5508 5511 5514 5517 5520 5522 5523 5524 5524 5524 5524 5523 5522 5521 5519
5317 5321 5326 5331 5337 5344 5352 5360 5368 5376 5384 5392 5400 5408 5416 5424 5432 5440 5447 5455 5462 5468 5475 5481 5486 5491 5496 5500 5504 5507 5511 5513 5515 5517 5519 5519 5519 5519 5519 5519 5518 5516 5514
5312 5317 5322 5327 5333 5340 5348 5356 5364 5372 5380 5388 5396 5405 5413 5421 5429 5436 5444 5451 5458 5465 5471 5477 5482 5487 5492 5496 5500 5503 5506 5509 5511 5513 5514 5515 5515 5515 5515 5514 5513 5512 5510